Time,TemperatureF,DewpointF,PressureIn,WindDirection,WindDirectionDegrees,WindSpeedMPH,WindSpeedGustMPH,Humidity,HourlyPrecipIn,Conditions,Clouds,dailyrainin,SoftwareType,DateUTC
2013-10-21 00:01:00,49.4,43.2,29.98,SSE,153,0.0,0.0,79,0.00,,,0.00,Wunderground v.1.15,2013-10-21 04:01:00,
2013-10-21 00:03:00,49.3,43.1,29.98,SSE,153,0.0,0.0,79,0.00,,,0.00,Wunderground v.1.15,2013-10-21 04:03:00,
2013-10-21 00:09:00,49.0,43.1,29.98,SSE,153,0.0,0.0,80,0.00,,,0.00,Wunderground v.1.15,2013-10-21 04:09:00,
2013-10-21 00:11:00,48.9,43.0,29.98,SSE,153,0.0,0.0,80,0.00,,,0.00,Wunderground v.1.15,2013-10-21 04:11:00,
2013-10-21 00:17:00,48.7,43.1,29.97,SSE,153,0.0,0.0,81,0.00,,,0.00,Wunderground v.1.15,2013-10-21 04:17:00,
2013-10-21 00:23:00,48.5,42.9,29.97,SSE,153,0.0,0.0,81,0.00,,,0.00,Wunderground v.1.15,2013-10-21 04:23:00,
2013-10-21 00:25:00,48.5,42.9,29.98,SSE,155,0.0,0.0,81,0.00,,,0.00,Wunderground v.1.15,2013-10-21 04:25:00,
2013-10-21 00:29:00,48.6,43.0,29.97,SSE,155,0.0,0.0,81,0.00,,,0.00,Wunderground v.1.15,2013-10-21 04:29:00,
2013-10-21 00:35:00,48.7,43.1,29.97,SSE,155,0.0,1.0,81,0.00,,,0.00,Wunderground v.1.15,2013-10-21 04:35:00,
2013-10-21 00:41:00,48.8,43.2,29.98,SSE,164,0.0,0.0,81,0.00,,,0.00,Wunderground v.1.15,2013-10-21 04:41:00,
2013-10-21 00:47:00,48.9,43.0,29.97,SSE,164,0.0,0.0,80,0.00,,,0.00,Wunderground v.1.15,2013-10-21 04:47:00,
2013-10-21 00:53:00,49.0,43.1,29.97,SSE,164,0.0,0.0,80,0.00,,,0.00,Wunderground v.1.15,2013-10-21 04:53:00,
2013-10-21 00:59:00,49.0,43.1,29.97,SSE,164,0.0,0.0,80,0.00,,,0.00,Wunderground v.1.15,2013-10-21 04:59:00,
2013-10-21 01:05:00,49.0,43.1,29.97,SSE,167,0.0,0.0,80,0.00,,,0.00,Wunderground v.1.15,2013-10-21 05:05:00,
2013-10-21 01:11:00,49.0,43.1,29.97,SSE,167,0.0,0.0,80,0.00,,,0.00,Wunderground v.1.15,2013-10-21 05:11:00,
2013-10-21 01:17:00,48.8,42.9,29.97,SSE,167,0.0,0.0,80,0.00,,,0.00,Wunderground v.1.15,2013-10-21 05:17:00,
2013-10-21 01:23:00,48.7,43.1,29.97,SSE,167,0.0,0.0,81,0.00,,,0.00,Wunderground v.1.15,2013-10-21 05:23:00,
2013-10-21 01:29:00,48.5,42.9,29.98,SSE,167,0.0,0.0,81,0.00,,,0.00,Wunderground v.1.15,2013-10-21 05:29:00,
2013-10-21 01:35:00,48.2,43.0,29.98,SSE,167,0.0,0.0,82,0.00,,,0.00,Wunderground v.1.15,2013-10-21 05:35:00,
2013-10-21 01:41:00,47.9,42.7,29.97,SSE,167,0.0,0.0,82,0.00,,,0.00,Wunderground v.1.15,2013-10-21 05:41:00,
2013-10-21 01:47:00,47.7,42.8,29.97,SSE,167,0.0,0.0,83,0.00,,,0.00,Wunderground v.1.15,2013-10-21 05:47:00,
2013-10-21 01:53:00,47.6,42.7,29.97,SSE,167,0.0,0.0,83,0.00,,,0.00,Wunderground v.1.15,2013-10-21 05:53:00,
2013-10-21 01:59:00,47.5,42.6,29.97,SSE,167,0.0,0.0,83,0.00,,,0.00,Wunderground v.1.15,2013-10-21 05:59:00,
2013-10-21 02:05:00,47.5,42.6,29.98,SSE,157,0.0,1.0,83,0.00,,,0.00,Wunderground v.1.15,2013-10-21 06:05:00,
2013-10-21 02:11:00,47.6,42.7,29.98,SSE,159,0.0,0.0,83,0.00,,,0.00,Wunderground v.1.15,2013-10-21 06:11:00,
2013-10-21 02:17:00,47.7,42.8,29.98,SSE,161,0.0,2.0,83,0.00,,,0.00,Wunderground v.1.15,2013-10-21 06:17:00,
2013-10-21 02:23:00,47.8,42.9,29.98,South,184,0.0,0.0,83,0.00,,,0.00,Wunderground v.1.15,2013-10-21 06:23:00,
2013-10-21 02:29:00,47.8,42.9,29.98,South,189,0.0,1.0,83,0.00,,,0.00,Wunderground v.1.15,2013-10-21 06:29:00,
2013-10-21 02:35:00,47.8,42.9,29.98,West,264,1.0,2.0,83,0.00,,,0.00,Wunderground v.1.15,2013-10-21 06:35:00,
2013-10-21 02:41:00,47.9,43.0,29.98,West,259,0.0,0.0,83,0.00,,,0.00,Wunderground v.1.15,2013-10-21 06:41:00,
2013-10-21 02:47:00,47.9,43.0,29.98,South,174,0.0,3.0,83,0.00,,,0.00,Wunderground v.1.15,2013-10-21 06:47:00,
2013-10-21 02:53:00,47.9,43.0,29.98,SSE,156,0.0,0.0,83,0.00,,,0.00,Wunderground v.1.15,2013-10-21 06:53:00,
2013-10-21 02:59:00,47.9,43.0,29.98,SSE,157,0.0,2.0,83,0.00,,,0.00,Wunderground v.1.15,2013-10-21 06:59:00,
2013-10-21 03:05:00,47.9,42.7,29.98,SSE,159,0.0,0.0,82,0.00,,,0.00,Wunderground v.1.15,2013-10-21 07:05:00,
2013-10-21 03:11:00,47.9,42.7,29.98,SSE,159,0.0,0.0,82,0.00,,,0.00,Wunderground v.1.15,2013-10-21 07:11:00,
2013-10-21 03:17:00,47.9,42.7,29.98,SSE,163,0.0,1.0,82,0.00,,,0.00,Wunderground v.1.15,2013-10-21 07:17:00,
2013-10-21 03:23:00,47.9,42.7,29.98,South,175,0.0,0.0,82,0.00,,,0.00,Wunderground v.1.15,2013-10-21 07:23:00,
2013-10-21 03:29:00,47.8,42.6,29.98,South,180,0.0,3.0,82,0.00,,,0.00,Wunderground v.1.15,2013-10-21 07:29:00,
2013-10-21 03:35:00,47.8,42.6,29.98,South,191,0.0,0.0,82,0.00,,,0.00,Wunderground v.1.15,2013-10-21 07:35:00,
2013-10-21 03:41:00,47.7,42.5,29.98,SSW,193,0.0,0.0,82,0.00,,,0.00,Wunderground v.1.15,2013-10-21 07:41:00,
2013-10-21 03:47:00,47.6,42.7,29.98,SSW,202,0.0,2.0,83,0.00,,,0.00,Wunderground v.1.15,2013-10-21 07:47:00,
2013-10-21 03:53:00,47.5,42.6,29.97,SSW,202,0.0,0.0,83,0.00,,,0.00,Wunderground v.1.15,2013-10-21 07:53:00,
2013-10-21 03:59:00,47.4,42.5,29.97,SSW,202,0.0,0.0,83,0.00,,,0.00,Wunderground v.1.15,2013-10-21 07:59:00,
2013-10-21 04:05:00,47.4,42.5,29.97,SSW,202,0.0,0.0,83,0.00,,,0.00,Wunderground v.1.15,2013-10-21 08:05:00,
2013-10-21 04:11:00,47.3,42.4,29.97,SSW,202,0.0,0.0,83,0.00,,,0.00,Wunderground v.1.15,2013-10-21 08:11:00,
2013-10-21 04:17:00,47.3,42.4,29.97,SSW,201,0.0,0.0,83,0.00,,,0.00,Wunderground v.1.15,2013-10-21 08:17:00,
2013-10-21 04:23:00,47.3,42.4,29.97,SSW,202,0.0,0.0,83,0.00,,,0.00,Wunderground v.1.15,2013-10-21 08:23:00,
2013-10-21 04:29:00,47.3,42.4,29.97,SSW,200,0.0,0.0,83,0.00,,,0.00,Wunderground v.1.15,2013-10-21 08:29:00,
2013-10-21 04:35:00,47.3,42.4,29.97,SSW,198,0.0,2.0,83,0.00,,,0.00,Wunderground v.1.15,2013-10-21 08:35:00,
2013-10-21 04:41:00,47.2,42.3,29.97,SW,224,0.0,1.0,83,0.00,,,0.00,Wunderground v.1.15,2013-10-21 08:41:00,
2013-10-21 04:47:00,47.3,42.4,29.98,South,188,1.0,1.0,83,0.00,,,0.00,Wunderground v.1.15,2013-10-21 08:47:00,
2013-10-21 04:53:00,47.3,42.4,29.98,South,188,0.0,0.0,83,0.00,,,0.00,Wunderground v.1.15,2013-10-21 08:53:00,
2013-10-21 04:59:00,47.4,42.5,29.98,South,188,0.0,1.0,83,0.00,,,0.00,Wunderground v.1.15,2013-10-21 08:59:00,
2013-10-21 05:05:00,47.3,42.4,29.97,South,188,0.0,0.0,83,0.00,,,0.00,Wunderground v.1.15,2013-10-21 09:05:00,
2013-10-21 05:11:00,47.2,42.3,29.98,South,188,0.0,0.0,83,0.00,,,0.00,Wunderground v.1.15,2013-10-21 09:11:00,
2013-10-21 05:17:00,47.1,42.2,29.98,South,189,0.0,0.0,83,0.00,,,0.00,Wunderground v.1.15,2013-10-21 09:17:00,
2013-10-21 05:23:00,47.0,42.1,29.98,South,189,0.0,0.0,83,0.00,,,0.00,Wunderground v.1.15,2013-10-21 09:23:00,
2013-10-21 05:29:00,46.9,42.0,29.98,South,189,0.0,0.0,83,0.00,,,0.00,Wunderground v.1.15,2013-10-21 09:29:00,
2013-10-21 05:35:00,46.9,42.0,29.98,SSW,201,0.0,2.0,83,0.00,,,0.00,Wunderground v.1.15,2013-10-21 09:35:00,
2013-10-21 05:41:00,46.9,42.0,29.98,SW,221,1.0,1.0,83,0.00,,,0.00,Wunderground v.1.15,2013-10-21 09:41:00,
2013-10-21 05:47:00,47.0,42.4,29.98,SSW,207,1.0,3.0,84,0.00,,,0.00,Wunderground v.1.15,2013-10-21 09:47:00,
2013-10-21 05:53:00,47.0,42.4,29.98,SW,216,1.0,1.0,84,0.00,,,0.00,Wunderground v.1.15,2013-10-21 09:53:00,
2013-10-21 05:59:00,47.0,42.4,29.98,SW,219,1.0,1.0,84,0.00,,,0.00,Wunderground v.1.15,2013-10-21 09:59:00,
2013-10-21 06:05:00,47.0,42.4,29.98,SW,219,1.0,1.0,84,0.00,,,0.00,Wunderground v.1.15,2013-10-21 10:05:00,
2013-10-21 06:11:00,47.0,42.4,29.98,SW,219,0.0,0.0,84,0.00,,,0.00,Wunderground v.1.15,2013-10-21 10:11:00,
2013-10-21 06:17:00,47.0,42.4,29.98,SW,217,0.0,0.0,84,0.00,,,0.00,Wunderground v.1.15,2013-10-21 10:17:00,
2013-10-21 06:23:00,46.9,42.3,29.98,SW,217,0.0,4.0,84,0.00,,,0.00,Wunderground v.1.15,2013-10-21 10:23:00,
2013-10-21 06:29:00,46.9,42.0,29.98,SW,217,0.0,4.0,83,0.00,,,0.00,Wunderground v.1.15,2013-10-21 10:29:00,
2013-10-21 06:35:00,46.9,42.0,29.98,SW,215,0.0,0.0,83,0.00,,,0.00,Wunderground v.1.15,2013-10-21 10:35:00,
2013-10-21 06:41:00,47.0,42.4,29.98,SW,220,1.0,1.0,84,0.00,,,0.00,Wunderground v.1.15,2013-10-21 10:41:00,
2013-10-21 06:47:00,47.0,42.1,29.98,SW,219,1.0,2.0,83,0.00,,,0.00,Wunderground v.1.15,2013-10-21 10:47:00,
2013-10-21 06:53:00,47.1,42.2,29.98,SW,219,0.0,2.0,83,0.00,,,0.00,Wunderground v.1.15,2013-10-21 10:53:00,
2013-10-21 06:59:00,47.1,42.2,29.98,SW,219,0.0,2.0,83,0.00,,,0.00,Wunderground v.1.15,2013-10-21 10:59:00,
2013-10-21 07:05:00,47.1,42.2,29.97,SW,219,0.0,0.0,83,0.00,,,0.00,Wunderground v.1.15,2013-10-21 11:05:00,
2013-10-21 07:11:00,47.0,42.1,29.97,SW,219,0.0,0.0,83,0.00,,,0.00,Wunderground v.1.15,2013-10-21 11:11:00,
2013-10-21 07:17:00,46.9,42.0,29.97,SW,219,0.0,0.0,83,0.00,,,0.00,Wunderground v.1.15,2013-10-21 11:17:00,
2013-10-21 07:23:00,46.9,42.0,29.97,SW,219,0.0,0.0,83,0.00,,,0.00,Wunderground v.1.15,2013-10-21 11:23:00,
2013-10-21 07:29:00,46.9,42.0,29.97,SW,219,0.0,0.0,83,0.00,,,0.00,Wunderground v.1.15,2013-10-21 11:29:00,
2013-10-21 07:35:00,46.8,41.9,29.97,SW,219,0.0,1.0,83,0.00,,,0.00,Wunderground v.1.15,2013-10-21 11:35:00,
2013-10-21 07:41:00,46.8,41.9,29.97,SW,219,1.0,1.0,83,0.00,,,0.00,Wunderground v.1.15,2013-10-21 11:41:00,
2013-10-21 07:47:00,46.9,42.0,29.97,SW,217,1.0,1.0,83,0.00,,,0.00,Wunderground v.1.15,2013-10-21 11:47:00,
2013-10-21 07:53:00,46.9,42.0,29.98,SW,227,1.0,1.0,83,0.00,,,0.00,Wunderground v.1.15,2013-10-21 11:53:00,
2013-10-21 07:59:00,47.0,42.1,29.97,SW,223,0.0,1.0,83,0.00,,,0.00,Wunderground v.1.15,2013-10-21 11:59:00,
2013-10-21 08:05:00,47.0,42.1,29.97,SW,216,1.0,3.0,83,0.00,,,0.00,Wunderground v.1.15,2013-10-21 12:05:00,
2013-10-21 08:11:00,47.1,42.2,29.97,SW,216,1.0,1.0,83,0.00,,,0.00,Wunderground v.1.15,2013-10-21 12:11:00,
2013-10-21 08:17:00,47.1,42.2,29.97,SW,215,0.0,3.0,83,0.00,,,0.00,Wunderground v.1.15,2013-10-21 12:17:00,
2013-10-21 08:23:00,47.3,42.4,29.98,SW,215,1.0,1.0,83,0.00,,,0.00,Wunderground v.1.15,2013-10-21 12:23:00,
2013-10-21 08:29:00,47.6,42.7,29.98,SSW,213,1.0,1.0,83,0.00,,,0.00,Wunderground v.1.15,2013-10-21 12:29:00,
2013-10-21 08:35:00,47.8,42.9,29.98,SW,220,1.0,5.0,83,0.00,,,0.00,Wunderground v.1.15,2013-10-21 12:35:00,
2013-10-21 08:41:00,48.1,43.2,29.98,SSW,211,1.0,1.0,83,0.00,,,0.00,Wunderground v.1.15,2013-10-21 12:41:00,
2013-10-21 08:47:00,48.5,43.3,29.98,South,190,1.0,3.0,82,0.00,,,0.00,Wunderground v.1.15,2013-10-21 12:47:00,
2013-10-21 08:53:00,48.8,43.2,29.99,West,267,2.0,3.0,81,0.00,,,0.00,Wunderground v.1.15,2013-10-21 12:53:00,
2013-10-21 08:59:00,49.2,43.9,29.99,SW,218,2.0,3.0,82,0.00,,,0.00,Wunderground v.1.15,2013-10-21 12:59:00,
2013-10-21 09:05:00,49.6,44.0,29.99,SW,222,2.0,2.0,81,0.00,,,0.00,Wunderground v.1.15,2013-10-21 13:05:00,
2013-10-21 09:11:00,50.0,44.4,29.99,SW,228,2.0,2.0,81,0.00,,,0.00,Wunderground v.1.15,2013-10-21 13:11:00,
2013-10-21 09:17:00,50.3,44.4,29.99,WSW,247,2.0,8.0,80,0.00,,,0.00,Wunderground v.1.15,2013-10-21 13:17:00,
2013-10-21 09:23:00,50.7,44.4,29.99,SW,234,3.0,7.0,79,0.00,,,0.00,Wunderground v.1.15,2013-10-21 13:23:00,
2013-10-21 09:29:00,51.0,44.4,29.99,SW,230,4.0,7.0,78,0.00,,,0.00,Wunderground v.1.15,2013-10-21 13:29:00,
2013-10-21 09:35:00,51.4,44.8,29.99,SSW,207,3.0,4.0,78,0.00,,,0.00,Wunderground v.1.15,2013-10-21 13:35:00,
2013-10-21 09:41:00,51.7,45.1,29.99,West,259,3.0,5.0,78,0.00,,,0.00,Wunderground v.1.15,2013-10-21 13:41:00,
2013-10-21 09:47:00,52.2,45.2,29.99,WSW,253,3.0,7.0,77,0.00,,,0.00,Wunderground v.1.15,2013-10-21 13:47:00,
2013-10-21 09:53:00,52.5,45.5,29.99,WNW,286,4.0,6.0,77,0.00,,,0.00,Wunderground v.1.15,2013-10-21 13:53:00,
2013-10-21 09:59:00,52.9,45.9,29.99,WSW,243,5.0,6.0,77,0.00,,,0.00,Wunderground v.1.15,2013-10-21 13:59:00,
2013-10-21 10:05:00,53.3,45.9,29.99,SSW,213,5.0,7.0,76,0.00,,,0.00,Wunderground v.1.15,2013-10-21 14:05:00,
2013-10-21 10:11:00,53.7,46.3,29.98,SSE,148,4.0,4.0,76,0.00,,,0.00,Wunderground v.1.15,2013-10-21 14:11:00,
2013-10-21 10:17:00,54.1,46.3,29.99,SW,217,4.0,7.0,75,0.00,,,0.00,Wunderground v.1.15,2013-10-21 14:17:00,
2013-10-21 10:23:00,54.4,46.3,29.98,SW,235,5.0,9.0,74,0.00,,,0.00,Wunderground v.1.15,2013-10-21 14:23:00,
2013-10-21 10:29:00,54.8,47.0,29.98,SSE,167,6.0,9.0,75,0.00,,,0.00,Wunderground v.1.15,2013-10-21 14:29:00,
2013-10-21 10:35:00,55.1,47.3,29.98,WSW,258,5.0,9.0,75,0.00,,,0.00,Wunderground v.1.15,2013-10-21 14:35:00,
2013-10-21 10:41:00,55.3,46.8,29.98,SSW,210,6.0,6.0,73,0.00,,,0.00,Wunderground v.1.15,2013-10-21 14:41:00,
2013-10-21 10:47:00,55.5,47.3,29.98,WSW,244,5.0,6.0,74,0.00,,,0.00,Wunderground v.1.15,2013-10-21 14:47:00,
2013-10-21 10:53:00,56.0,47.8,29.98,SW,219,5.0,8.0,74,0.00,,,0.00,Wunderground v.1.15,2013-10-21 14:53:00,
2013-10-21 10:59:00,56.3,47.4,29.98,WSW,249,5.0,8.0,72,0.00,,,0.00,Wunderground v.1.15,2013-10-21 14:59:00,
2013-10-21 11:05:00,56.4,47.5,29.97,South,181,5.0,8.0,72,0.00,,,0.00,Wunderground v.1.15,2013-10-21 15:05:00,
2013-10-21 11:11:00,56.8,48.2,29.97,SSW,213,5.0,5.0,73,0.00,,,0.00,Wunderground v.1.15,2013-10-21 15:11:00,
2013-10-21 11:17:00,57.1,48.2,29.96,SE,146,5.0,7.0,72,0.00,,,0.00,Wunderground v.1.15,2013-10-21 15:17:00,
2013-10-21 11:23:00,57.6,48.6,29.96,SW,225,4.0,6.0,72,0.00,,,0.00,Wunderground v.1.15,2013-10-21 15:23:00,
2013-10-21 11:29:00,58.0,49.0,29.97,SW,234,4.0,6.0,72,0.00,,,0.00,Wunderground v.1.15,2013-10-21 15:29:00,
2013-10-21 11:35:00,58.5,48.7,29.96,SSW,205,4.0,4.0,70,0.00,,,0.00,Wunderground v.1.15,2013-10-21 15:35:00,
2013-10-21 11:41:00,58.7,49.3,29.96,SSW,211,5.0,6.0,71,0.00,,,0.00,Wunderground v.1.15,2013-10-21 15:41:00,
2013-10-21 11:47:00,58.9,48.7,29.96,SSW,206,5.0,8.0,69,0.00,,,0.00,Wunderground v.1.15,2013-10-21 15:47:00,
2013-10-21 11:53:00,59.2,49.4,29.97,SSW,213,6.0,6.0,70,0.00,,,0.00,Wunderground v.1.15,2013-10-21 15:53:00,
2013-10-21 11:59:00,59.6,49.8,29.96,SSW,213,5.0,7.0,70,0.00,,,0.00,Wunderground v.1.15,2013-10-21 15:59:00,
2013-10-21 12:05:00,60.0,49.4,29.96,West,259,5.0,8.0,68,0.00,,,0.00,Wunderground v.1.15,2013-10-21 16:05:00,
2013-10-21 12:11:00,59.8,48.8,29.96,WNW,284,6.0,6.0,67,0.00,,,0.00,Wunderground v.1.15,2013-10-21 16:11:00,
2013-10-21 12:17:00,59.9,49.3,29.96,West,260,6.0,8.0,68,0.00,,,0.00,Wunderground v.1.15,2013-10-21 16:17:00,
2013-10-21 12:23:00,60.0,49.8,29.96,West,262,6.0,6.0,69,0.00,,,0.00,Wunderground v.1.15,2013-10-21 16:23:00,
2013-10-21 12:29:00,59.9,49.7,29.96,SW,225,5.0,6.0,69,0.00,,,0.00,Wunderground v.1.15,2013-10-21 16:29:00,
2013-10-21 12:35:00,59.9,49.7,29.96,SW,215,4.0,6.0,69,0.00,,,0.00,Wunderground v.1.15,2013-10-21 16:35:00,
2013-10-21 12:41:00,60.0,50.2,29.96,WSW,253,5.0,9.0,70,0.00,,,0.00,Wunderground v.1.15,2013-10-21 16:41:00,
2013-10-21 12:47:00,60.4,50.2,29.96,WSW,254,6.0,9.0,69,0.00,,,0.00,Wunderground v.1.15,2013-10-21 16:47:00,
2013-10-21 12:53:00,60.9,50.3,29.96,WSW,250,5.0,6.0,68,0.00,,,0.00,Wunderground v.1.15,2013-10-21 16:53:00,
2013-10-21 12:59:00,61.5,50.8,29.96,SSW,201,5.0,8.0,68,0.00,,,0.00,Wunderground v.1.15,2013-10-21 16:59:00,
2013-10-21 13:05:00,62.0,50.5,29.95,SW,223,5.0,8.0,66,0.00,,,0.00,Wunderground v.1.15,2013-10-21 17:05:00,
2013-10-21 13:11:00,62.2,51.1,29.95,WSW,245,4.0,4.0,67,0.00,,,0.00,Wunderground v.1.15,2013-10-21 17:11:00,
2013-10-21 13:17:00,62.4,51.3,29.95,West,271,4.0,4.0,67,0.00,,,0.00,Wunderground v.1.15,2013-10-21 17:17:00,
2013-10-21 13:23:00,62.7,50.8,29.95,WSW,256,5.0,6.0,65,0.00,,,0.00,Wunderground v.1.15,2013-10-21 17:23:00,
2013-10-21 13:29:00,62.9,51.4,29.94,South,184,6.0,8.0,66,0.00,,,0.00,Wunderground v.1.15,2013-10-21 17:29:00,
2013-10-21 13:35:00,63.0,50.2,29.94,WSW,255,5.0,5.0,63,0.00,,,0.00,Wunderground v.1.15,2013-10-21 17:35:00,
2013-10-21 13:41:00,62.4,50.5,29.94,WSW,239,5.0,5.0,65,0.00,,,0.00,Wunderground v.1.15,2013-10-21 17:41:00,
2013-10-21 13:47:00,61.7,50.2,29.94,SW,222,5.0,7.0,66,0.00,,,0.00,Wunderground v.1.15,2013-10-21 17:47:00,
2013-10-21 13:53:00,61.2,50.2,29.94,West,259,5.0,5.0,67,0.00,,,0.00,Wunderground v.1.15,2013-10-21 17:53:00,
2013-10-21 13:59:00,61.1,50.8,29.94,WSW,257,4.0,5.0,69,0.00,,,0.00,Wunderground v.1.15,2013-10-21 17:59:00,
2013-10-21 14:05:00,61.0,50.4,29.93,West,261,3.0,4.0,68,0.00,,,0.00,Wunderground v.1.15,2013-10-21 18:05:00,
2013-10-21 14:11:00,60.9,50.3,29.93,SW,227,2.0,3.0,68,0.00,,,0.00,Wunderground v.1.15,2013-10-21 18:11:00,
2013-10-21 14:17:00,60.9,50.7,29.93,WSW,245,3.0,4.0,69,0.00,,,0.00,Wunderground v.1.15,2013-10-21 18:17:00,
2013-10-21 14:23:00,61.0,50.8,29.93,SW,215,2.0,3.0,69,0.00,,,0.00,Wunderground v.1.15,2013-10-21 18:23:00,
2013-10-21 14:29:00,61.2,50.9,29.93,SW,231,2.0,4.0,69,0.00,,,0.00,Wunderground v.1.15,2013-10-21 18:29:00,
2013-10-21 14:35:00,61.3,50.2,29.93,SSW,211,2.0,7.0,67,0.00,,,0.00,Wunderground v.1.15,2013-10-21 18:35:00,
2013-10-21 14:41:00,61.4,50.7,29.92,SW,232,4.0,4.0,68,0.00,,,0.00,Wunderground v.1.15,2013-10-21 18:41:00,
2013-10-21 14:47:00,61.5,51.6,29.92,WSW,239,2.0,4.0,70,0.00,,,0.00,Wunderground v.1.15,2013-10-21 18:47:00,
2013-10-21 14:53:00,61.7,50.6,29.92,WSW,255,2.0,5.0,67,0.00,,,0.00,Wunderground v.1.15,2013-10-21 18:53:00,
2013-10-21 14:59:00,61.7,51.0,29.92,WSW,246,4.0,8.0,68,0.00,,,0.00,Wunderground v.1.15,2013-10-21 18:59:00,
2013-10-21 15:05:00,61.6,50.1,29.92,West,271,5.0,6.0,66,0.00,,,0.00,Wunderground v.1.15,2013-10-21 19:05:00,
2013-10-21 15:11:00,61.5,50.4,29.91,WSW,257,6.0,6.0,67,0.00,,,0.00,Wunderground v.1.15,2013-10-21 19:11:00,
2013-10-21 15:17:00,61.5,50.0,29.91,SW,234,5.0,9.0,66,0.00,,,0.00,Wunderground v.1.15,2013-10-21 19:17:00,
2013-10-21 15:23:00,61.4,50.7,29.92,WNW,291,4.0,5.0,68,0.00,,,0.00,Wunderground v.1.15,2013-10-21 19:23:00,
2013-10-21 15:29:00,61.3,50.6,29.91,SSW,204,4.0,7.0,68,0.00,,,0.00,Wunderground v.1.15,2013-10-21 19:29:00,
2013-10-21 15:35:00,61.2,50.6,29.91,SW,223,4.0,6.0,68,0.00,,,0.00,Wunderground v.1.15,2013-10-21 19:35:00,
2013-10-21 15:41:00,61.2,50.9,29.91,WSW,258,4.0,4.0,69,0.00,,,0.00,Wunderground v.1.15,2013-10-21 19:41:00,
2013-10-21 15:47:00,61.3,51.0,29.91,SSW,209,4.0,6.0,69,0.00,,,0.00,Wunderground v.1.15,2013-10-21 19:47:00,
2013-10-21 15:53:00,61.5,50.8,29.91,SSE,163,5.0,5.0,68,0.00,,,0.00,Wunderground v.1.15,2013-10-21 19:53:00,
2013-10-21 15:59:00,61.6,50.5,29.91,West,260,5.0,6.0,67,0.00,,,0.00,Wunderground v.1.15,2013-10-21 19:59:00,
2013-10-21 16:05:00,61.7,50.6,29.91,WSW,245,4.0,5.0,67,0.00,,,0.00,Wunderground v.1.15,2013-10-21 20:05:00,
2013-10-21 16:11:00,61.8,51.1,29.91,SSW,197,4.0,4.0,68,0.00,,,0.00,Wunderground v.1.15,2013-10-21 20:11:00,
2013-10-21 16:17:00,62.0,51.3,29.91,SW,227,2.0,5.0,68,0.00,,,0.00,Wunderground v.1.15,2013-10-21 20:17:00,
2013-10-21 16:23:00,61.9,51.2,29.91,WSW,237,3.0,6.0,68,0.00,,,0.00,Wunderground v.1.15,2013-10-21 20:23:00,
2013-10-21 16:29:00,62.0,51.3,29.91,WSW,239,4.0,6.0,68,0.00,,,0.00,Wunderground v.1.15,2013-10-21 20:29:00,
2013-10-21 16:35:00,61.7,50.6,29.91,SW,229,4.0,5.0,67,0.00,,,0.00,Wunderground v.1.15,2013-10-21 20:35:00,
2013-10-21 16:41:00,61.6,51.3,29.91,SW,217,5.0,5.0,69,0.00,,,0.00,Wunderground v.1.15,2013-10-21 20:41:00,
2013-10-21 16:47:00,61.7,50.6,29.91,WSW,252,4.0,5.0,67,0.00,,,0.00,Wunderground v.1.15,2013-10-21 20:47:00,
2013-10-21 16:53:00,61.6,51.7,29.91,SW,218,4.0,4.0,70,0.00,,,0.00,Wunderground v.1.15,2013-10-21 20:53:00,
2013-10-21 16:59:00,61.6,51.3,29.92,WSW,250,3.0,4.0,69,0.00,,,0.00,Wunderground v.1.15,2013-10-21 20:59:00,
2013-10-21 17:05:00,61.7,51.0,29.92,West,265,3.0,4.0,68,0.00,,,0.00,Wunderground v.1.15,2013-10-21 21:05:00,
2013-10-21 17:11:00,61.8,50.7,29.91,SW,236,3.0,3.0,67,0.00,,,0.00,Wunderground v.1.15,2013-10-21 21:11:00,
2013-10-21 17:17:00,61.6,50.5,29.91,WSW,246,4.0,6.0,67,0.00,,,0.00,Wunderground v.1.15,2013-10-21 21:17:00,
2013-10-21 17:23:00,61.5,50.8,29.91,SW,218,4.0,8.0,68,0.00,,,0.00,Wunderground v.1.15,2013-10-21 21:23:00,
2013-10-21 17:29:00,61.4,51.1,29.92,SW,228,3.0,8.0,69,0.00,,,0.00,Wunderground v.1.15,2013-10-21 21:29:00,
2013-10-21 17:35:00,61.4,51.1,29.91,SW,231,3.0,3.0,69,0.00,,,0.00,Wunderground v.1.15,2013-10-21 21:35:00,
2013-10-21 17:41:00,61.3,51.0,29.92,WSW,257,3.0,4.0,69,0.00,,,0.00,Wunderground v.1.15,2013-10-21 21:41:00,
2013-10-21 17:47:00,61.2,50.6,29.92,WSW,257,3.0,4.0,68,0.00,,,0.00,Wunderground v.1.15,2013-10-21 21:47:00,
2013-10-21 17:53:00,61.1,51.2,29.92,WSW,252,2.0,3.0,70,0.00,,,0.00,Wunderground v.1.15,2013-10-21 21:53:00,
2013-10-21 17:59:00,61.0,51.5,29.92,WSW,247,2.0,3.0,71,0.00,,,0.00,Wunderground v.1.15,2013-10-21 21:59:00,
2013-10-21 18:05:00,61.0,51.5,29.92,West,263,2.0,4.0,71,0.00,,,0.00,Wunderground v.1.15,2013-10-21 22:05:00,
2013-10-21 18:11:00,60.8,51.0,29.92,West,261,1.0,1.0,70,0.00,,,0.00,Wunderground v.1.15,2013-10-21 22:11:00,
2013-10-21 18:17:00,60.7,51.2,29.92,West,262,1.0,1.0,71,0.00,,,0.00,Wunderground v.1.15,2013-10-21 22:17:00,
2013-10-21 18:23:00,60.5,51.4,29.92,WNW,288,1.0,3.0,72,0.00,,,0.00,Wunderground v.1.15,2013-10-21 22:23:00,
2013-10-21 18:29:00,59.8,50.8,29.92,WNW,296,2.0,3.0,72,0.00,,,0.00,Wunderground v.1.15,2013-10-21 22:29:00,
2013-10-21 18:35:00,59.3,50.6,29.92,WNW,286,3.0,10.0,73,0.00,,,0.00,Wunderground v.1.15,2013-10-21 22:35:00,
2013-10-21 18:41:00,58.8,50.5,29.92,WNW,290,2.0,2.0,74,0.00,,,0.00,Wunderground v.1.15,2013-10-21 22:41:00,
2013-10-21 18:47:00,58.4,50.5,29.93,WNW,301,1.0,2.0,75,0.00,,,0.00,Wunderground v.1.15,2013-10-21 22:47:00,
2013-10-21 18:53:00,58.0,50.1,29.92,WNW,301,1.0,2.0,75,0.00,,,0.00,Wunderground v.1.15,2013-10-21 22:53:00,
2013-10-21 18:59:00,57.7,50.2,29.92,WNW,297,1.0,2.0,76,0.00,,,0.00,Wunderground v.1.15,2013-10-21 22:59:00,
2013-10-21 19:05:00,57.5,50.3,29.93,WNW,297,1.0,1.0,77,0.00,,,0.00,Wunderground v.1.15,2013-10-21 23:05:00,
2013-10-21 19:11:00,57.3,50.5,29.93,WNW,298,0.0,0.0,78,0.00,,,0.00,Wunderground v.1.15,2013-10-21 23:11:00,
2013-10-21 19:17:00,57.1,50.0,29.93,WNW,288,2.0,4.0,77,0.00,,,0.00,Wunderground v.1.15,2013-10-21 23:17:00,
2013-10-21 19:23:00,56.9,49.8,29.94,NW,306,3.0,3.0,77,0.00,,,0.00,Wunderground v.1.15,2013-10-21 23:23:00,
2013-10-21 19:29:00,56.6,49.5,29.94,NW,323,2.0,3.0,77,0.00,,,0.00,Wunderground v.1.15,2013-10-21 23:29:00,
2013-10-21 19:35:00,56.4,49.6,29.94,NW,304,3.0,3.0,78,0.00,,,0.00,Wunderground v.1.15,2013-10-21 23:35:00,
2013-10-21 19:41:00,56.1,49.7,29.94,WNW,290,2.0,2.0,79,0.00,,,0.00,Wunderground v.1.15,2013-10-21 23:41:00,
2013-10-21 19:47:00,55.8,49.4,29.93,WNW,296,1.0,6.0,79,0.00,,,0.00,Wunderground v.1.15,2013-10-21 23:47:00,
2013-10-21 19:53:00,55.6,49.5,29.94,WNW,298,1.0,4.0,80,0.00,,,0.00,Wunderground v.1.15,2013-10-21 23:53:00,
2013-10-21 19:59:00,55.4,49.3,29.94,NW,306,1.0,5.0,80,0.00,,,0.00,Wunderground v.1.15,2013-10-21 23:59:00,
2013-10-21 20:05:00,55.1,49.4,29.94,WNW,298,2.0,5.0,81,0.00,,,0.00,Wunderground v.1.15,2013-10-22 00:05:00,
2013-10-21 20:11:00,54.8,49.4,29.94,WNW,298,2.0,5.0,82,0.00,,,0.00,Wunderground v.1.15,2013-10-22 00:11:00,
2013-10-21 20:17:00,54.6,49.2,29.94,NW,306,2.0,5.0,82,0.00,,,0.00,Wunderground v.1.15,2013-10-22 00:17:00,
2013-10-21 20:23:00,54.5,49.4,29.94,NW,315,1.0,1.0,83,0.00,,,0.00,Wunderground v.1.15,2013-10-22 00:23:00,
2013-10-21 20:29:00,54.3,49.2,29.94,NW,310,1.0,3.0,83,0.00,,,0.00,Wunderground v.1.15,2013-10-22 00:29:00,
2013-10-21 20:41:00,53.9,49.2,29.95,WNW,303,1.0,5.0,84,0.00,,,0.00,Wunderground v.1.15,2013-10-22 00:41:00,
2013-10-21 20:50:00,53.5,48.5,29.95,NNW,331,2.0,5.0,83,0.00,,,0.00,Wunderground v.1.15,2013-10-22 00:50:00,
2013-10-21 20:57:00,53.1,48.4,29.95,NNW,327,2.0,8.0,84,0.00,,,0.00,Wunderground v.1.15,2013-10-22 00:57:00,
2013-10-21 21:03:00,52.8,47.1,29.96,WNW,302,2.0,4.0,81,0.00,,,0.00,Wunderground v.1.15,2013-10-22 01:03:00,
2013-10-21 21:15:00,52.3,46.6,29.96,NW,321,1.0,4.0,81,0.00,,,0.00,Wunderground v.1.15,2013-10-22 01:15:00,
2013-10-21 21:25:00,52.1,46.4,29.96,WNW,303,1.0,5.0,81,0.00,,,0.00,Wunderground v.1.15,2013-10-22 01:25:00,
2013-10-21 21:31:00,51.9,46.6,29.96,West,275,1.0,4.0,82,0.00,,,0.00,Wunderground v.1.15,2013-10-22 01:31:00,
2013-10-21 21:37:00,51.5,46.5,29.97,WNW,285,1.0,4.0,83,0.00,,,0.00,Wunderground v.1.15,2013-10-22 01:37:00,
2013-10-21 21:45:00,51.2,46.8,29.97,WNW,285,0.0,1.0,85,0.00,,,0.00,Wunderground v.1.15,2013-10-22 01:45:00,
2013-10-21 21:51:00,51.0,46.6,29.97,WNW,285,0.0,0.0,85,0.00,,,0.00,Wunderground v.1.15,2013-10-22 01:51:00,
2013-10-21 21:57:00,50.8,46.8,29.97,WNW,286,0.0,2.0,86,0.00,,,0.01,Wunderground v.1.15,2013-10-22 01:57:00,
2013-10-21 22:03:00,50.6,46.6,29.97,WNW,289,0.0,0.0,86,0.00,,,0.01,Wunderground v.1.15,2013-10-22 02:03:00,
2013-10-21 22:11:00,50.4,46.7,29.97,WNW,289,0.0,0.0,87,0.00,,,0.01,Wunderground v.1.15,2013-10-22 02:11:00,
2013-10-21 22:17:00,50.2,46.8,29.98,WNW,289,0.0,2.0,88,0.00,,,0.01,Wunderground v.1.15,2013-10-22 02:17:00,
2013-10-21 22:23:00,50.1,47.0,29.98,WNW,289,0.0,0.0,89,0.00,,,0.01,Wunderground v.1.15,2013-10-22 02:23:00,
2013-10-21 22:31:00,49.9,46.8,29.98,WNW,289,0.0,0.0,89,0.00,,,0.01,Wunderground v.1.15,2013-10-22 02:31:00,
2013-10-21 22:37:00,49.8,47.0,29.98,WNW,289,0.0,0.0,90,0.00,,,0.02,Wunderground v.1.15,2013-10-22 02:37:00,
2013-10-21 22:51:00,49.5,46.7,29.98,WNW,290,0.0,0.0,90,0.00,,,0.02,Wunderground v.1.15,2013-10-22 02:51:00,
2013-10-21 23:03:00,49.2,46.1,29.98,NW,310,1.0,1.0,89,0.00,,,0.02,Wunderground v.1.15,2013-10-22 03:03:00,
2013-10-21 23:15:00,48.8,46.0,29.99,NW,310,0.0,0.0,90,0.00,,,0.02,Wunderground v.1.15,2013-10-22 03:15:00,
2013-10-21 23:21:00,48.6,44.9,29.99,NNW,333,2.0,2.0,87,0.00,,,0.02,Wunderground v.1.15,2013-10-22 03:21:00,
2013-10-21 23:27:00,48.2,43.9,29.99,NW,313,3.0,4.0,85,0.00,,,0.02,Wunderground v.1.15,2013-10-22 03:27:00,
2013-10-21 23:33:00,47.8,42.3,29.99,NW,320,1.0,2.0,81,0.00,,,0.02,Wunderground v.1.15,2013-10-22 03:33:00,
2013-10-21 23:39:00,47.4,40.9,30.00,NW,325,1.0,2.0,78,0.00,,,0.02,Wunderground v.1.15,2013-10-22 03:39:00,
2013-10-21 23:45:00,47.2,40.0,30.00,North,5,2.0,6.0,76,0.00,,,0.02,Wunderground v.1.15,2013-10-22 03:45:00,
2013-10-21 23:59:00,46.7,39.2,29.99,NNW,345,1.0,3.0,75,0.00,,,0.00,Wunderground v.1.15,2013-10-22 03:59:00,